,,Stat5,,Stat1,,Stat2,,Stat3,,Stat4,,Wind1,,Wind1,
time,status,PA1M_AVG,status,PR1M_SUM,status,RH1M_AVG,status,SR1M_AVG,status,TA1M_AVG,status,W1dAve1m,status,W1sAve1m,
2002-04-16, 00:00:01,VALID,918.624,VALID,0,VALID,99.3428,VALID,0.0339617,VALID,20.5198,VALID,177,VALID,1.01377,
2002-04-16, 00:01:00,VALID,918.624,VALID,0.2,VALID,99.3454,VALID,0,VALID,20.5002,VALID,177,VALID,1.13303,
2002-04-16, 00:02:00,VALID,918.636,VALID,0,VALID,99.3517,VALID,0.0169808,VALID,20.4805,VALID,174,VALID,1.27693,
2002-04-16, 00:03:01,VALID,918.64,VALID,0,VALID,99.3479,VALID,0.0169808,VALID,20.4773,VALID,175,VALID,1.25929,
2002-04-16, 00:04:00,VALID,918.654,VALID,0.2,VALID,99.3517,VALID,0.0169808,VALID,20.4967,VALID,169,VALID,1.04962,
2002-04-16, 00:05:01,VALID,918.668,VALID,0,VALID,99.3403,VALID,0.0169808,VALID,20.5163,VALID,171,VALID,1.08854,
2002-04-16, 00:06:01,VALID,918.677,VALID,0,VALID,99.3428,VALID,0,VALID,20.5166,VALID,171,VALID,1.02803,
2002-04-16, 00:07:01,VALID,918.681,VALID,0.2,VALID,99.3403,VALID,0,VALID,20.5354,VALID,173,VALID,0.959498,
2002-04-16, 00:08:00,VALID,918.693,VALID,0,VALID,99.3416,VALID,0.0169808,VALID,20.5486,VALID,173,VALID,1.1442,
2002-04-16, 00:09:00,VALID,918.716,VALID,0,VALID,99.3403,VALID,0,VALID,20.571,VALID,170,VALID,1.32096,
2002-04-16, 00:10:00,VALID,918.703,VALID,0,VALID,99.3428,VALID,0,VALID,20.6068,VALID,166,VALID,1.08045,
2002-04-16, 00:11:01,VALID,918.709,VALID,0,VALID,99.3454,VALID,0.0169808,VALID,20.6095,VALID,173,VALID,1.02482,
2002-04-16, 00:12:00,VALID,918.699,VALID,0,VALID,99.3403,VALID,0,VALID,20.6264,VALID,169,VALID,0.856291,
2002-04-16, 00:13:00,VALID,918.695,VALID,0,VALID,99.3416,VALID,0,VALID,20.6224,VALID,177,VALID,0.474175,
2002-04-16, 00:14:00,VALID,918.699,VALID,0,VALID,99.3301,VALID,0.0169808,VALID,20.6326,VALID,165,VALID,0.713325,
2002-04-16, 00:15:01,VALID,918.694,VALID,0,VALID,99.3288,VALID,0,VALID,20.6426,VALID,151,VALID,0.395904,
2002-04-16, 00:16:01,VALID,918.684,VALID,0,VALID,99.3403,VALID,0,VALID,20.6388,VALID,130,VALID,0.673483,
2002-04-16, 00:17:00,VALID,918.266,VALID,0,VALID,99.3365,VALID,0.0339617,VALID,20.6291,VALID,127,VALID,0.656867,
2002-04-16, 00:18:01,VALID,918.658,VALID,0,VALID,99.3238,VALID,0.0169808,VALID,20.6165,VALID,127,VALID,0.464627,
2002-04-16, 00:19:00,VALID,918.621,VALID,0,VALID,99.3352,VALID,0,VALID,20.6262,VALID,154,VALID,0.339844,
2002-04-16, 00:20:01,VALID,918.577,VALID,0.2,VALID,99.3314,VALID,0.0169808,VALID,20.6423,VALID,161,VALID,0.466427,
2002-04-16, 00:21:01,VALID,918.53,VALID,0,VALID,99.3288,VALID,0,VALID,20.6719,VALID,204,VALID,0.108226,
2002-04-16, 00:22:01,VALID,918.484,VALID,0,VALID,99.3263,VALID,-0.0169808,VALID,20.6846,VALID,207,VALID,0.0984786,
2002-04-16, 00:23:01,VALID,918.436,VALID,0,VALID,99.3352,VALID,0,VALID,20.6741,VALID,207,VALID,0.179036,
2002-04-16, 00:24:01,VALID,918.403,VALID,0,VALID,99.3339,VALID,0,VALID,20.6916,VALID,208,VALID,0.126953,
2002-04-16, 00:25:01,VALID,918.383,VALID,0,VALID,99.3327,VALID,0,VALID,20.697,VALID,209,VALID,0,
2002-04-16, 00:26:01,VALID,918.343,VALID,0,VALID,99.3225,VALID,0.0169808,VALID,20.7099,VALID,209,VALID,0.000919118,
2002-04-16, 00:27:01,VALID,918.307,VALID,0,VALID,99.3238,VALID,0,VALID,20.694,VALID,238,VALID,0.226563,
2002-04-16, 00:28:01,VALID,918.266,VALID,0.2,VALID,99.3263,VALID,0.0339617,VALID,20.6644,VALID,267,VALID,0.324002,
2002-04-16, 00:29:01,VALID,918.224,VALID,0,VALID,99.3225,VALID,0,VALID,20.6582,VALID,250,VALID,0.473307,
2002-04-16, 00:30:01,VALID,918.183,VALID,0,VALID,99.3339,VALID,0.0339617,VALID,20.6483,VALID,253,VALID,0.34924,
2002-04-16, 00:31:01,VALID,918.151,VALID,0,VALID,99.3238,VALID,0.0339617,VALID,20.6197,VALID,253,VALID,0.127298,
2002-04-16, 00:32:01,VALID,918.11,VALID,0,VALID,99.3352,VALID,0,VALID,20.616,VALID,253,VALID,0,
2002-04-16, 00:33:01,VALID,918.086,VALID,0,VALID,99.3327,VALID,0,VALID,20.6257,VALID,349,VALID,0.544488,
2002-04-16, 00:34:01,VALID,918.046,VALID,0,VALID,99.3428,VALID,0,VALID,20.6423,VALID,22,VALID,1.06207,
2002-04-16, 00:35:01,VALID,918.033,VALID,0,VALID,99.3301,VALID,0,VALID,20.6095,VALID,27,VALID,1.27238,
2002-04-16, 00:36:01,VALID,918.008,VALID,0,VALID,99.3301,VALID,0,VALID,20.5648,VALID,27,VALID,1.60524,
2002-04-16, 00:37:01,VALID,918.023,VALID,0,VALID,99.3365,VALID,0,VALID,20.5389,VALID,36,VALID,1.59396,
2002-04-16, 00:38:01,VALID,918.027,VALID,0,VALID,99.3352,VALID,0,VALID,20.526,VALID,37,VALID,1.20703,
2002-04-16, 00:39:01,VALID,918.036,VALID,0,VALID,99.3314,VALID,0.0169808,VALID,20.5158,VALID,31,VALID,1.40972,
2002-04-16, 00:40:01,VALID,918.054,VALID,0,VALID,99.3327,VALID,0,VALID,20.5099,VALID,30,VALID,1.8068,
2002-04-16, 00:41:01,VALID,918.069,VALID,0,VALID,99.3377,VALID,0.0169808,VALID,20.5061,VALID,26,VALID,1.58778,
2002-04-16, 00:42:01,VALID,918.061,VALID,0,VALID,99.3403,VALID,0,VALID,20.5029,VALID,18,VALID,1.67167,
2002-04-16, 00:43:01,VALID,918.062,VALID,0,VALID,99.3352,VALID,0,VALID,20.4937,VALID,22,VALID,1.97179,
2002-04-16, 00:44:00,VALID,918.042,VALID,0,VALID,99.3301,VALID,0.0169808,VALID,20.4967,VALID,21,VALID,1.56185,
2002-04-16, 00:45:00,VALID,918.045,VALID,0,VALID,99.3416,VALID,0.0169808,VALID,20.4741,VALID,16,VALID,1.36486,
2002-04-16, 00:46:00,VALID,917.999,VALID,0,VALID,99.3454,VALID,0.0509425,VALID,20.4673,VALID,6,VALID,1.60892,
2002-04-16, 00:47:00,VALID,917.991,VALID,0,VALID,99.3441,VALID,0.0339617,VALID,20.4644,VALID,17,VALID,1.64679,
2002-04-16, 00:48:00,VALID,917.985,VALID,0,VALID,99.3454,VALID,0,VALID,20.4544,VALID,10,VALID,1.51953,
2002-04-16, 00:49:00,VALID,917.966,VALID,0,VALID,99.3428,VALID,0.0169808,VALID,20.4676,VALID,22,VALID,0.992839,
2002-04-16, 00:50:00,VALID,917.964,VALID,0,VALID,99.3454,VALID,0.0169808,VALID,20.4713,VALID,11,VALID,0.646326,
2002-04-16, 00:51:00,VALID,917.934,VALID,0,VALID,99.3543,VALID,0.0339617,VALID,20.4803,VALID,358,VALID,0.789752,
2002-04-16, 00:52:00,VALID,917.926,VALID,0,VALID,99.3454,VALID,-0.0339617,VALID,20.4617,VALID,356,VALID,0.709704,
2002-04-16, 00:53:00,VALID,917.902,VALID,0,VALID,99.3556,VALID,-0.0509425,VALID,20.4401,VALID,3,VALID,0.0169271,
2002-04-16, 00:54:00,VALID,917.883,VALID,0,VALID,99.3657,VALID,-0.0849042,VALID,20.4299,VALID,3,VALID,0.134983,
2002-04-16, 00:55:00,VALID,917.855,VALID,0,VALID,99.3657,VALID,-0.0339617,VALID,20.4366,VALID,3,VALID,0.11951,
2002-04-16, 00:56:00,VALID,917.826,VALID,0,VALID,99.3695,VALID,-0.0679233,VALID,20.4333,VALID,3,VALID,0.0413603,
2002-04-16, 00:57:00,VALID,917.801,VALID,0,VALID,99.3543,VALID,-0.0509425,VALID,20.4266,VALID,10,VALID,0.0228207,
2002-04-16, 00:58:00,VALID,917.777,VALID,0,VALID,99.3619,VALID,-0.0849042,VALID,20.4237,VALID,121,VALID,0.313368,
2002-04-16, 00:59:00,VALID,917.761,VALID,0,VALID,99.3632,VALID,-0.0679233,VALID,20.4204,VALID,128,VALID,0.191623,
2002-04-16, 01:00:00,VALID,917.75,VALID,0,VALID,99.3619,VALID,-0.0509425,VALID,20.4301,VALID,58,VALID,0.463471,
2002-04-16, 01:01:00,VALID,917.736,VALID,0,VALID,99.3657,VALID,-0.0509425,VALID,20.4237,VALID,55,VALID,0.689798,
2002-04-16, 01:02:00,VALID,917.697,VALID,0,VALID,99.3695,VALID,-0.0679233,VALID,20.4105,VALID,47,VALID,0.914885,
2002-04-16, 01:03:00,VALID,917.674,VALID,0,VALID,99.3759,VALID,-0.0679233,VALID,20.411,VALID,36,VALID,0.898003,
2002-04-16, 01:04:00,VALID,917.657,VALID,0,VALID,99.3708,VALID,-0.0509425,VALID,20.3981,VALID,37,VALID,0.699653,
2002-04-16, 01:05:00,VALID,917.633,VALID,0,VALID,99.3632,VALID,-0.101885,VALID,20.3782,VALID,44,VALID,0.652238,
2002-04-16, 01:06:00,VALID,917.618,VALID,0,VALID,99.3746,VALID,-0.0679233,VALID,20.3787,VALID,46,VALID,0.692096,
2002-04-16, 01:07:00,VALID,917.599,VALID,0,VALID,99.3746,VALID,-0.0509425,VALID,20.3787,VALID,40,VALID,0.778166,
2002-04-16, 01:08:00,VALID,917.598,VALID,0,VALID,99.3683,VALID,-0.0679233,VALID,20.3652,VALID,50,VALID,1.02344,
2002-04-16, 01:09:00,VALID,917.58,VALID,0,VALID,99.3632,VALID,-0.0509425,VALID,20.3593,VALID,54,VALID,1.06489,
2002-04-16, 01:10:00,VALID,917.557,VALID,0,VALID,99.3708,VALID,-0.0679233,VALID,20.3531,VALID,61,VALID,0.888091,
2002-04-16, 01:11:00,VALID,917.556,VALID,0,VALID,99.3746,VALID,-0.0679233,VALID,20.3399,VALID,51,VALID,0.402114,
2002-04-16, 01:12:00,VALID,917.544,VALID,0,VALID,99.3695,VALID,-0.0849042,VALID,20.3302,VALID,61,VALID,0.328125,
2002-04-16, 01:13:00,VALID,917.541,VALID,0,VALID,99.3772,VALID,-0.0849042,VALID,20.3044,VALID,76,VALID,0.245443,
2002-04-16, 01:14:00,VALID,917.545,VALID,0,VALID,99.3683,VALID,-0.101885,VALID,20.3049,VALID,79,VALID,0.0694444,
2002-04-16, 01:15:00,VALID,917.543,VALID,0,VALID,99.3797,VALID,-0.0849042,VALID,20.2914,VALID,79,VALID,0,
2002-04-16, 01:16:00,VALID,917.543,VALID,0,VALID,99.3683,VALID,-0.101885,VALID,20.2952,VALID,79,VALID,0,
2002-04-16, 01:17:00,VALID,917.548,VALID,0,VALID,99.3746,VALID,-0.101885,VALID,20.2952,VALID,79,VALID,0,
2002-04-16, 01:18:00,VALID,917.548,VALID,0,VALID,99.3721,VALID,-0.0849042,VALID,20.2914,VALID,79,VALID,0,
2002-04-16, 01:19:00,VALID,917.55,VALID,0,VALID,99.3759,VALID,-0.0679233,VALID,20.2885,VALID,109,VALID,0.218533,
2002-04-16, 01:20:00,VALID,917.532,VALID,0,VALID,99.367,VALID,-0.0849042,VALID,20.2847,VALID,168,VALID,0.594172,
2002-04-16, 01:21:00,VALID,917.526,VALID,0,VALID,99.3823,VALID,-0.101885,VALID,20.2912,VALID,174,VALID,0.691406,
2002-04-16, 01:22:00,VALID,917.517,VALID,0,VALID,99.381,VALID,-0.0509425,VALID,20.2842,VALID,174,VALID,0.713199,
2002-04-16, 01:23:00,VALID,917.505,VALID,0,VALID,99.3797,VALID,0.0339617,VALID,20.2668,VALID,165,VALID,0.777127,
2002-04-16, 01:24:00,VALID,917.488,VALID,0,VALID,99.3899,VALID,0.0169808,VALID,20.2549,VALID,165,VALID,0.871528,
2002-04-16, 01:25:00,VALID,917.461,VALID,0,VALID,99.3912,VALID,0.0339617,VALID,20.2124,VALID,169,VALID,1.02048,
2002-04-16, 01:26:00,VALID,917.435,VALID,0,VALID,99.3975,VALID,0.0339617,VALID,20.1965,VALID,171,VALID,1.28676,
2002-04-16, 01:27:00,VALID,917.416,VALID,0,VALID,99.3899,VALID,0.0339617,VALID,20.1709,VALID,176,VALID,1.60362,
2002-04-16, 01:28:00,VALID,917.378,VALID,0,VALID,99.3899,VALID,-0.0169808,VALID,20.1512,VALID,179,VALID,1.24392,
2002-04-16, 01:29:00,VALID,917.35,VALID,0,VALID,99.3962,VALID,0.0169808,VALID,20.1475,VALID,172,VALID,1.18099,
2002-04-16, 01:30:00,VALID,917.325,VALID,0,VALID,99.3924,VALID,0.0169808,VALID,20.1617,VALID,172,VALID,0.957137,
2002-04-16, 01:31:00,VALID,917.307,VALID,0,VALID,99.3962,VALID,0.0169808,VALID,20.1348,VALID,157,VALID,0.810432,
2002-04-16, 01:32:00,VALID,917.289,VALID,0,VALID,99.3962,VALID,0,VALID,20.1324,VALID,143,VALID,1.0662,
2002-04-16, 01:33:00,VALID,917.268,VALID,0,VALID,99.367,VALID,0,VALID,20.0675,VALID,141,VALID,1.20313,
2002-04-16, 01:34:00,VALID,917.25,VALID,0,VALID,99.3861,VALID,0,VALID,20.0093,VALID,143,VALID,1.21745,
2002-04-16, 01:35:00,VALID,917.245,VALID,0,VALID,99.3848,VALID,0,VALID,19.9574,VALID,108,VALID,0.756123,
2002-04-16, 01:36:00,VALID,917.239,VALID,0,VALID,99.4026,VALID,0,VALID,19.9773,VALID,131,VALID,0.533088,
2002-04-16, 01:37:00,VALID,917.224,VALID,0,VALID,99.4026,VALID,-0.0509425,VALID,19.9945,VALID,128,VALID,0.827919,
2002-04-16, 01:38:00,VALID,917.207,VALID,0,VALID,99.4013,VALID,-0.101885,VALID,20.0111,VALID,149,VALID,0.680122,
2002-04-16, 01:39:00,VALID,917.199,VALID,0,VALID,99.3912,VALID,-0.101885,VALID,19.9813,VALID,129,VALID,0.882813,
2002-04-16, 01:40:00,VALID,917.189,VALID,0,VALID,99.3899,VALID,-0.0849042,VALID,19.9269,VALID,136,VALID,1.13767,
2002-04-16, 01:41:00,VALID,917.168,VALID,0,VALID,99.3924,VALID,-0.0849042,VALID,19.8849,VALID,147,VALID,0.78148,
2002-04-16, 01:42:00,VALID,917.153,VALID,0,VALID,99.3886,VALID,-0.101885,VALID,19.8297,VALID,146,VALID,1.36986,
2002-04-16, 01:43:00,VALID,917.127,VALID,0,VALID,99.3962,VALID,-0.101885,VALID,19.7979,VALID,142,VALID,1.12023,
2002-04-16, 01:44:00,VALID,917.139,VALID,0,VALID,99.3962,VALID,-0.101885,VALID,19.7648,VALID,117,VALID,0.736545,
2002-04-16, 01:45:00,VALID,917.142,VALID,0,VALID,99.4039,VALID,-0.0679233,VALID,19.7489,VALID,113,VALID,1.25042,
2002-04-16, 01:46:00,VALID,917.15,VALID,0,VALID,99.4001,VALID,-0.0509425,VALID,19.7333,VALID,82,VALID,0.554228,
2002-04-16, 01:47:00,VALID,917.175,VALID,0,VALID,99.4166,VALID,-0.0849042,VALID,19.7233,VALID,112,VALID,0.918174,
2002-04-16, 01:48:00,VALID,917.189,VALID,0,VALID,99.409,VALID,-0.0849042,VALID,19.7328,VALID,123,VALID,1.46289,
2002-04-16, 01:49:00,VALID,917.205,VALID,0,VALID,99.4179,VALID,-0.0679233,VALID,19.7457,VALID,115,VALID,1.39041,
2002-04-16, 01:50:00,VALID,917.216,VALID,0,VALID,99.4217,VALID,-0.0849042,VALID,19.7817,VALID,127,VALID,1.52808,
2002-04-16, 01:51:00,VALID,917.22,VALID,0,VALID,99.4217,VALID,-0.0679233,VALID,19.7877,VALID,131,VALID,1.5278,
2002-04-16, 01:52:00,VALID,917.234,VALID,0,VALID,99.4217,VALID,-0.0169808,VALID,19.7708,VALID,117,VALID,1.6727,
2002-04-16, 01:53:00,VALID,917.242,VALID,0,VALID,99.4229,VALID,0,VALID,19.7708,VALID,113,VALID,1.6467,
2002-04-16, 01:54:00,VALID,917.258,VALID,0,VALID,99.4255,VALID,-0.0169808,VALID,19.7641,VALID,113,VALID,1.53689,
2002-04-16, 01:55:00,VALID,917.282,VALID,0,VALID,99.4255,VALID,0,VALID,19.7738,VALID,137,VALID,1.52724,
2002-04-16, 01:56:00,VALID,917.291,VALID,0,VALID,99.4344,VALID,0.0169808,VALID,19.7999,VALID,127,VALID,1.92969,
2002-04-16, 01:57:00,VALID,917.291,VALID,0,VALID,99.4204,VALID,0.0509425,VALID,19.8063,VALID,120,VALID,1.67414,
2002-04-16, 01:58:00,VALID,917.296,VALID,0,VALID,99.4204,VALID,0.0169808,VALID,19.7999,VALID,107,VALID,1.46484,
2002-04-16, 01:59:00,VALID,917.287,VALID,0,VALID,99.4204,VALID,0,VALID,19.7835,VALID,124,VALID,1.32943,
2002-04-16, 02:00:00,VALID,917.256,VALID,0,VALID,99.4115,VALID,0,VALID,19.7643,VALID,119,VALID,2.07559,
2002-04-16, 02:01:00,VALID,917.243,VALID,0,VALID,99.4217,VALID,0,VALID,19.7449,VALID,124,VALID,1.75643,
2002-04-16, 02:02:00,VALID,917.227,VALID,0,VALID,99.4191,VALID,0,VALID,19.729,VALID,128,VALID,1.48787,
2002-04-16, 02:03:00,VALID,917.202,VALID,0,VALID,99.4217,VALID,0,VALID,19.7131,VALID,135,VALID,1.64388,
2002-04-16, 02:04:00,VALID,917.166,VALID,0,VALID,99.4268,VALID,0.0339617,VALID,19.7002,VALID,134,VALID,1.13737,
2002-04-16, 02:05:00,VALID,917.134,VALID,0,VALID,99.4229,VALID,0,VALID,19.6647,VALID,141,VALID,1.25528,
2002-04-16, 02:06:00,VALID,917.098,VALID,0,VALID,99.4128,VALID,0.0169808,VALID,19.6254,VALID,133,VALID,1.14752,
2002-04-16, 02:07:00,VALID,917.081,VALID,0,VALID,99.4179,VALID,0.0339617,VALID,19.5901,VALID,128,VALID,1.36904,
2002-04-16, 02:08:00,VALID,917.029,VALID,0,VALID,99.4179,VALID,0,VALID,19.5516,VALID,134,VALID,1.51411,
2002-04-16, 02:09:00,VALID,916.993,VALID,0,VALID,99.4115,VALID,0,VALID,19.5034,VALID,110,VALID,1.39779,
2002-04-16, 02:10:00,VALID,916.971,VALID,0,VALID,99.409,VALID,0,VALID,19.4768,VALID,90,VALID,1.1989,
2002-04-16, 02:11:00,VALID,916.958,VALID,0,VALID,99.4026,VALID,0,VALID,19.455,VALID,115,VALID,1.21301,
2002-04-16, 02:12:00,VALID,916.938,VALID,0,VALID,99.4001,VALID,0.0169808,VALID,19.4224,VALID,108,VALID,1.18195,
2002-04-16, 02:13:00,VALID,916.931,VALID,0,VALID,99.395,VALID,0.0169808,VALID,19.4093,VALID,65,VALID,1.1276,
2002-04-16, 02:14:00,VALID,916.921,VALID,0,VALID,99.3823,VALID,0.0169808,VALID,19.3996,VALID,88,VALID,1.87934,
2002-04-16, 02:15:00,VALID,916.913,VALID,0,VALID,99.3708,VALID,0.0339617,VALID,19.3829,VALID,105,VALID,1.41681,
2002-04-16, 02:16:00,VALID,916.9,VALID,0,VALID,99.3416,VALID,0.0169808,VALID,19.3832,VALID,115,VALID,1.72909,
2002-04-16, 02:17:00,VALID,916.888,VALID,0,VALID,99.3225,VALID,0.0169808,VALID,19.3862,VALID,110,VALID,1.52796,
2002-04-16, 02:18:00,VALID,916.866,VALID,0,VALID,99.2882,VALID,0.0169808,VALID,19.4192,VALID,117,VALID,1.66406,
2002-04-16, 02:19:00,VALID,916.844,VALID,0,VALID,99.2615,VALID,0.0169808,VALID,19.4353,VALID,119,VALID,1.56662,
2002-04-16, 02:20:00,VALID,916.839,VALID,0,VALID,99.2309,VALID,0.0169808,VALID,19.4386,VALID,120,VALID,1.78547,
2002-04-16, 02:21:00,VALID,916.816,VALID,0,VALID,99.1991,VALID,0.0169808,VALID,19.4247,VALID,118,VALID,1.31388,
2002-04-16, 02:22:00,VALID,916.815,VALID,0,VALID,99.1826,VALID,0.0169808,VALID,19.4381,VALID,115,VALID,1.48602,
2002-04-16, 02:23:00,VALID,916.781,VALID,0,VALID,99.1559,VALID,0.0169808,VALID,19.4353,VALID,115,VALID,1.31684,
2002-04-16, 02:24:00,VALID,916.77,VALID,0,VALID,99.1483,VALID,0,VALID,19.4386,VALID,99,VALID,1.39063,
2002-04-16, 02:25:00,VALID,916.76,VALID,0,VALID,99.1216,VALID,0.0169808,VALID,19.4289,VALID,117,VALID,1.62986,
2002-04-16, 02:26:00,VALID,916.755,VALID,0,VALID,99.1089,VALID,0,VALID,19.4386,VALID,132,VALID,1.54274,
2002-04-16, 02:27:00,VALID,916.734,VALID,0,VALID,99.0796,VALID,0,VALID,19.4351,VALID,119,VALID,1.47656,
2002-04-16, 02:28:00,VALID,916.71,VALID,0,VALID,99.0567,VALID,0,VALID,19.4256,VALID,115,VALID,1.54015,
2002-04-16, 02:29:00,VALID,916.695,VALID,0,VALID,99.0669,VALID,0.0339617,VALID,19.4222,VALID,106,VALID,1.05382,
2002-04-16, 02:30:00,VALID,916.694,VALID,0,VALID,99.0504,VALID,0,VALID,19.4125,VALID,129,VALID,1.40773,
2002-04-16, 02:31:00,VALID,916.672,VALID,0,VALID,99.0593,VALID,0.0169808,VALID,19.4197,VALID,143,VALID,1.52551,
2002-04-16, 02:32:00,VALID,916.672,VALID,0,VALID,99.0644,VALID,0.0339617,VALID,19.4164,VALID,134,VALID,1.375,
2002-04-16, 02:33:00,VALID,916.684,VALID,0,VALID,99.0542,VALID,0.0169808,VALID,19.4093,VALID,137,VALID,0.815104,
2002-04-16, 02:34:00,VALID,916.719,VALID,0,VALID,99.0516,VALID,0.0339617,VALID,19.4095,VALID,117,VALID,1.54709,
2002-04-16, 02:35:00,VALID,916.738,VALID,0,VALID,99.0542,VALID,0.0339617,VALID,19.4028,VALID,133,VALID,1.48332,
2002-04-16, 02:36:00,VALID,916.75,VALID,0,VALID,99.0529,VALID,0,VALID,19.3958,VALID,122,VALID,1.50138,
2002-04-16, 02:37:00,VALID,916.761,VALID,0,VALID,99.044,VALID,-0.0339617,VALID,19.4202,VALID,129,VALID,1.42105,
2002-04-16, 02:38:00,VALID,916.769,VALID,0,VALID,99.0313,VALID,-0.0849042,VALID,19.4338,VALID,135,VALID,1.42795,
2002-04-16, 02:39:00,VALID,916.783,VALID,0,VALID,99.0097,VALID,-0.101885,VALID,19.4467,VALID,121,VALID,1.26324,
2002-04-16, 02:40:00,VALID,916.779,VALID,0,VALID,98.9919,VALID,-0.0679233,VALID,19.4564,VALID,144,VALID,1.14485,
2002-04-16, 02:41:00,VALID,916.779,VALID,0,VALID,98.9664,VALID,-0.0679233,VALID,19.4624,VALID,144,VALID,1.23277,
2002-04-16, 02:42:00,VALID,916.784,VALID,0,VALID,98.9563,VALID,-0.118866,VALID,19.4728,VALID,151,VALID,0.953536,
2002-04-16, 02:43:00,VALID,916.779,VALID,0,VALID,98.9537,VALID,-0.101885,VALID,19.4731,VALID,148,VALID,0.910156,
2002-04-16, 02:44:00,VALID,916.779,VALID,0,VALID,98.9512,VALID,-0.0849042,VALID,19.4631,VALID,140,VALID,1.10069,
2002-04-16, 02:45:00,VALID,916.807,VALID,0,VALID,98.9385,VALID,-0.101885,VALID,19.4599,VALID,148,VALID,1.40984,
2002-04-16, 02:46:00,VALID,916.819,VALID,0,VALID,98.9474,VALID,-0.101885,VALID,19.4408,VALID,124,VALID,0.772748,
2002-04-16, 02:47:00,VALID,916.84,VALID,0,VALID,98.9525,VALID,-0.101885,VALID,19.4375,VALID,124,VALID,1.35115,
2002-04-16, 02:48:00,VALID,916.843,VALID,0,VALID,98.9461,VALID,-0.0849042,VALID,19.4308,VALID,147,VALID,1.25369,
2002-04-16, 02:49:00,VALID,916.864,VALID,0,VALID,98.9474,VALID,-0.101885,VALID,19.4246,VALID,152,VALID,1.39431,
2002-04-16, 02:50:00,VALID,916.88,VALID,0,VALID,98.9448,VALID,-0.118866,VALID,19.4313,VALID,150,VALID,1.66343,
2002-04-16, 02:51:00,VALID,916.871,VALID,0,VALID,98.9194,VALID,-0.118866,VALID,19.4249,VALID,148,VALID,1.82514,
2002-04-16, 02:52:00,VALID,916.86,VALID,0,VALID,98.9092,VALID,-0.0679233,VALID,19.4234,VALID,144,VALID,1.18277,
2002-04-16, 02:53:00,VALID,916.859,VALID,0,VALID,98.9041,VALID,0,VALID,19.4395,VALID,149,VALID,1.01714,
2002-04-16, 02:54:00,VALID,916.834,VALID,0,VALID,98.8876,VALID,0,VALID,19.4264,VALID,134,VALID,0.929253,
2002-04-16, 02:55:00,VALID,916.825,VALID,0,VALID,98.8838,VALID,0.0169808,VALID,19.4164,VALID,130,VALID,0.884502,
2002-04-16, 02:56:00,VALID,916.823,VALID,0,VALID,98.852,VALID,0,VALID,19.4169,VALID,108,VALID,1.06066,
2002-04-16, 02:57:00,VALID,916.824,VALID,0,VALID,98.8418,VALID,0,VALID,19.4035,VALID,100,VALID,0.661184,
2002-04-16, 02:58:00,VALID,916.816,VALID,0,VALID,98.8673,VALID,0.0169808,VALID,19.3869,VALID,94,VALID,0.54579,
2002-04-16, 02:59:00,VALID,916.821,VALID,0,VALID,98.8673,VALID,0.0169808,VALID,19.3904,VALID,85,VALID,0.639974,
2002-04-16, 03:00:00,VALID,916.829,VALID,0,VALID,98.8774,VALID,-0.0169808,VALID,19.3906,VALID,84,VALID,0.541174,
2002-04-16, 03:01:00,VALID,916.832,VALID,0,VALID,98.8711,VALID,0,VALID,19.3782,VALID,86,VALID,1.04412,
2002-04-16, 03:02:00,VALID,916.831,VALID,0,VALID,98.8736,VALID,0,VALID,19.3851,VALID,104,VALID,0.956826,
2002-04-16, 03:03:00,VALID,916.809,VALID,0,VALID,98.8711,VALID,0,VALID,19.3779,VALID,118,VALID,0.357639,
2002-04-16, 03:04:00,VALID,916.799,VALID,0,VALID,98.852,VALID,0.0169808,VALID,19.3715,VALID,108,VALID,0.662543,
2002-04-16, 03:05:00,VALID,916.793,VALID,0,VALID,98.8393,VALID,0,VALID,19.3717,VALID,103,VALID,1.18687,
2002-04-16, 03:06:00,VALID,916.773,VALID,0,VALID,98.8291,VALID,0,VALID,19.3645,VALID,97,VALID,0.533318,
2002-04-16, 03:07:00,VALID,916.769,VALID,0,VALID,98.8177,VALID,0,VALID,19.3747,VALID,88,VALID,0.645354,
2002-04-16, 03:08:00,VALID,916.76,VALID,0,VALID,98.8151,VALID,0,VALID,19.3747,VALID,98,VALID,0.811849,
2002-04-16, 03:09:00,VALID,916.746,VALID,0,VALID,98.8049,VALID,0,VALID,19.3548,VALID,110,VALID,0.942925,
2002-04-16, 03:10:00,VALID,916.732,VALID,0,VALID,98.791,VALID,0.0169808,VALID,19.365,VALID,112,VALID,1.14527,
2002-04-16, 03:11:00,VALID,916.724,VALID,0,VALID,98.7617,VALID,0,VALID,19.365,VALID,108,VALID,1.21852,
2002-04-16, 03:12:00,VALID,916.713,VALID,0,VALID,98.7401,VALID,0,VALID,19.3615,VALID,111,VALID,1.5072,
2002-04-16, 03:13:00,VALID,916.717,VALID,0,VALID,98.7388,VALID,-0.0169808,VALID,19.3484,VALID,102,VALID,1.2691,
2002-04-16, 03:14:00,VALID,916.722,VALID,0,VALID,98.7223,VALID,0,VALID,19.3581,VALID,112,VALID,1.3431,
2002-04-16, 03:15:00,VALID,916.72,VALID,0,VALID,98.7223,VALID,0,VALID,19.3615,VALID,100,VALID,1.73036,
2002-04-16, 03:16:00,VALID,916.719,VALID,0,VALID,98.7096,VALID,0.0169808,VALID,19.3585,VALID,111,VALID,1.54848,
2002-04-16, 03:17:00,VALID,916.708,VALID,0,VALID,98.6854,VALID,0,VALID,19.368,VALID,118,VALID,1.17866,
2002-04-16, 03:18:00,VALID,916.701,VALID,0,VALID,98.6498,VALID,0.0339617,VALID,19.3742,VALID,126,VALID,1.18555,
2002-04-16, 03:19:00,VALID,916.708,VALID,0,VALID,98.5837,VALID,0.0339617,VALID,19.3804,VALID,121,VALID,2.20247,
2002-04-16, 03:20:00,VALID,916.693,VALID,0,VALID,98.4807,VALID,0.0169808,VALID,19.3938,VALID,120,VALID,1.9622,
2002-04-16, 03:21:00,VALID,916.706,VALID,0,VALID,98.3853,VALID,0,VALID,19.4137,VALID,101,VALID,2.20956,
2002-04-16, 03:22:00,VALID,916.724,VALID,0,VALID,98.3116,VALID,0.0169808,VALID,19.4299,VALID,127,VALID,1.78906,
2002-04-16, 03:23:00,VALID,916.721,VALID,0,VALID,98.2442,VALID,0,VALID,19.4291,VALID,126,VALID,2.16124,
2002-04-16, 03:24:00,VALID,916.712,VALID,0,VALID,98.192,VALID,0,VALID,19.4656,VALID,119,VALID,1.47114,
2002-04-16, 03:25:00,VALID,916.738,VALID,0,VALID,98.0776,VALID,-0.0169808,VALID,19.4786,VALID,119,VALID,2.18159,
2002-04-16, 03:26:00,VALID,916.716,VALID,0,VALID,97.9987,VALID,0,VALID,19.4882,VALID,115,VALID,1.56503,
2002-04-16, 03:27:00,VALID,916.718,VALID,0,VALID,97.9631,VALID,0,VALID,19.4912,VALID,103,VALID,1.25103,
2002-04-16, 03:28:00,VALID,916.702,VALID,0,VALID,97.8436,VALID,0,VALID,19.4875,VALID,101,VALID,2.26649,
2002-04-16, 03:29:00,VALID,916.686,VALID,0,VALID,97.6554,VALID,-0.0169808,VALID,19.491,VALID,95,VALID,1.56163,
2002-04-16, 03:30:00,VALID,916.708,VALID,0,VALID,97.6122,VALID,0,VALID,19.5034,VALID,101,VALID,1.25887,
2002-04-16, 03:31:00,VALID,916.722,VALID,0,VALID,97.5028,VALID,0,VALID,19.5004,VALID,108,VALID,1.71829,
2002-04-16, 03:32:00,VALID,916.718,VALID,0,VALID,97.4049,VALID,0,VALID,19.5034,VALID,121,VALID,1.7169,
2002-04-16, 03:33:00,VALID,916.729,VALID,0,VALID,97.2358,VALID,0,VALID,19.5066,VALID,115,VALID,2.30165,
2002-04-16, 03:34:00,VALID,916.759,VALID,0,VALID,97.1074,VALID,-0.0169808,VALID,19.5335,VALID,91,VALID,1.80013,
2002-04-16, 03:35:00,VALID,916.785,VALID,0,VALID,97.0781,VALID,-0.0169808,VALID,19.536,VALID,109,VALID,1.46685,